ASIASAT 6

Last updated on Tue Sep 22 2026 00:03:13 GMT+0000 (Coordinated Universal Time)

1 40141U 14052A 26264.60104409 .00000000 00000+0 00000+0 0 9994 2 40141 0.0198 172.3683 0000984 5.0577 159.3516 1.00269214 44042
UTC large
Height (km)
Speed (km/s)
/
Latitude / Longitude
Inclination (degrees)
Orbital Period (minutes)
Azimuth
Elevation
Range (km)
Doppler Factor

Next 0 passes for location: London (51.5072 / 0.1276)

No passes found over London.
ASIASAT 6